THORAD AGENA D DEB, 26821

Orbit data source: Space-Track

THORAD AGENA D DEB, 26821 is space debris in SSO originally from a launch on Wed, 08 Apr 1970 UTC launched from the Air Force Western Test Range (AFWTR). Debris objects in space refer to the collection of defunct objects orbiting the Earth. Examples of debris include non-operational satellites, rocket bodies, and fragments generated from explosions, collisions, or faulty payload assembly.

Loading next visibility...
Identifier
26821, 1970-025QQ
Orbit
SSO
Country
Flag of USUS
Related business
Manufacturer
Unknown
Mission
Spacecraft
Bus & Motor
Unknown
Mass
Unknown
Launch date (UTC)
1970-04-08 (56 years ago)
Launch vehicle
Unknown
Launch site
Air Force Western Test Range (AFWTR)
Object type
Payload
Rocket body
Debris
Shape & HBR
Unknown shape, 0.1 m
Radar Cross Section
Medium (>0.1 m² and <1 m²)

Expand to show TLE details & history
Last TLE update: 16 hours ago

TLE from 16 hours ago
0 THORAD AGENA D DEB
1 26821U 70025QQ  26256.01982285  .00010227  00000-0  13880-2 0  9993
2 26821  99.9823 280.3687 0034574  93.0051 298.0276 14.78719465720056
Epoch: 2026-09-13T00:28Z
TLE epoch observation values (Epoch: 2026-09-13T00:28:32.694Z)
Latitude
30.22419°
Longitude
-84.64133°
Altitude
625.842 km
Speed
7.555 km/s
True Right ascension
18h 18m 03s
True Declination
30° 04' 19"
Sunlit
Object was in daylight at epoch
Visualization orbit readout
Latitude
Unknown
Longitude
Unknown
Altitude
Unknown
Speed
Unknown
Apparent Right ascension
Unknown
Apparent Declination
Unknown
Sunlit
N/A
Visualization observer readout
Local Sidereal Time
09:28:48
Azimuth
Unknown
Elevation
Unknown
Doppler factor
Unknown
Orbital elements
Apogee altitude
654.748 km
Perigee altitude
606.285 km
Semi-major axis
7,008.654 km
Eccentricity
0.00346
Inclination
99.9823°
RAAN
280.3687°
Arg. of periapsis
93.0051°
True anomaly
297.67717°
Mean anomaly
298.0276°
Eccentric anomaly
297.85245°
Mean motion
3.69906 °/min
Orbital period
97.32 mins
BSTAR
0.001388

Documentation

Showing up to 5 results
|